Tracking 20241 objects as of 28-Jan-2020
HD Live streaming from Space Station
objects crossing your sky now

TBEX-B

Track TBEX-B now!
10-day predictions
TBEX-B is classified as:


NORAD ID: 44359
Int'l Code: 2019-036W
Perigee: 303.1 km
Apogee: 755.1 km
Inclination: 28.5 °
Period: 95.1 minutes
Semi major axis: 6900 km
RCS: Unknown
Launch date: June 25, 2019
Source: United States (US)
Launch site: AIR FORCE EASTERN TEST RANGE (AFETR)

Uplink (MHz):
Downlink (MHz): 437.485
Beacon (MHz):
Mode: 9600bps GMSK
Call sign: KF6RFX
Status: Active

aabbcc
Your satellite tracking list
Your tracking list is empty




NASA's NSSDC Master Catalog

Two Line Element Set (TLE):
1 44359U 19036W   20027.92556984 +.00024540 +00000-0 +30156-3 0  9996
2 44359 028.5232 214.0613 0327508 265.7754 090.5359 15.14684658032528
Source of the keplerian elements: AFSPC